TITAN 3C TRANSTAGE R/B, 1863

Orbit data source: Space-Track

TITAN 3C TRANSTAGE R/B, 1863 is space debris in HEO originally from a launch on Tue, 21 Dec 1965 UTC launched from the Air Force Eastern Test Range (AFETR). Debris objects in space refer to the collection of defunct objects orbiting the Earth. Examples of debris include non-operational satellites, rocket bodies, and fragments generated from explosions, collisions, or faulty payload assembly.

Loading next visibility...
Identifier
1863, 1965-108A
Orbit
HEO
Last TLE update
1 day ago
Origin
Manufacturer
Martin Marietta
Mission
Spacecraft
Bus & Motor
TRANSTAGE, Unknown motor
Mass
~2,050 kg wet, 1,950 kg dry
Launch date (UTC)
1965-12-21 (59 years ago)
Launch vehicle
Unknown
Launch site
Air Force Eastern Test Range (AFETR)
Object type
Payload
Rocket body
Debris
Shape & HBR
Cyl + 2 Nozzle, 4.6 m
Radar Cross Section
14.974 m², Large (>1 m²)

Expand to show TLE details & history

TLE from 1 day ago
0 TITAN 3C TRANSTAGE R/B
1 01863U 65108A   25128.19169420  .00003013  00000-0  13496-2 0  9990
2 01863  26.7005 157.7309 6024373 338.9871   4.2785  3.95755834352225
Epoch: 2025-05-08T04:36Z
Definitive object data (Epoch: 2025-05-08T04:36:02.378Z)
Latitude
0.00002°
Longitude
-137.52172°
Altitude
514.638 km
Speed
9.594 km/s
True Right ascension
10h 31m 00s
True Declination
0° 00' 00"
Sunlit
Object was in daylight at TLE epoch
Visualization TLE readout
Latitude
23.91841°
Longitude
-20.03102°
Altitude
12,456.397 km
Speed
4.327 km/s
Apparent Right ascension
19h 26m 10s
Apparent Declination
12° 43' 08"
Sunlit
Object is in daylight
Visualization observer readout
Local Sidereal Time
14:03:53
Azimuth
86.057° E
Elevation
15.298°
Doppler factor
1
Orbital elements
Apogee altitude
20,681.602 km
Perigee altitude
335.351 km
Semi-major axis
16,886.614 km
Eccentricity
0.6024373
Inclination
26.7005°
RAAN
157.7309°
Arg. of periapsis
338.9871°
True anomaly
21.2344°
Mean anomaly
4.2785°
Eccentric anomaly
10.66857°
Mean motion
0.98908 °/min
BSTAR
0.0013496
Orbital period
363.98 mins
Loading maneuver chart data...
Loading SW <> Apogee altitude chart data...

TITAN 3C TRANSTAGE R/B Visibility forecast

Observer location: undefined°, undefined°

Span
Click to sort rows by Start time (UTC) header in descending order
Start Az.
Max El. time (UTC)
Max El. Az.
Max El.
End time (UTC)
End Az.
24 mins2025-05-09 05:55:08.042Z86.095° E2025-05-09 05:55:08.042Z86.095° E14.767°2025-05-09 06:19:08.042Z84.767° E
280 mins2025-05-09 11:24:08.042Z270.676° WNW2025-05-09 12:35:08.042Z219.742° SW39.444°2025-05-09 16:04:08.042Z170.502° S
39 mins2025-05-10 05:16:08.042Z201.086° SSW2025-05-10 05:25:08.042Z138.982° SSE33.87°2025-05-10 05:55:08.042Z92.18° ESE
|